Preview of NWS' New Version of Forecast
This preview is not operational and should not be used for support decisions.

Regional Weather Roundup (RWR)

Issued by National Weather Service (NWS)

                            
000
ASCA42 TJSJ 180410
RWRPR 
PUERTO RICO/U.S. VIRGIN ISLANDS HOURLY WEATHER ROUNDUP
NATIONAL WEATHER SERVICE SAN JUAN PR
1200 AM AST MON FEB 18 2019

PRZ001>002-007>008-010-180500-
PUERTO RICO
  
CITY           SKY/WX    TMP DP  RH WIND       PRES   REMARKS
SAN JUAN LMM   PTCLDY    77  72  83 SE5       30.12S                  
AGUADILLA      CLEAR     72  63  73 CALM      30.13S                  
CEIBA          PTCLDY    73  72  94 E6        30.14S                  
$$

VIZ001>002-180500-
U.S. VIRGIN ISLANDS
  
CITY           SKY/WX    TMP DP  RH WIND       PRES   REMARKS
CHARLOTTE AMA  CLEAR     77  70  78 E7        30.12S                  
CHRISTIANSTED  CLEAR     75  72  88 NE6       30.13R                  
$$

HOURLY WEATHER ROUNDUP FOR THE NEWS MEDIA
  
CITY           SKY/WX    TMP DP  RH WIND       PRES   REMARKS
ORLANDO        FAIR      74  63  68 S3        30.01S                  
NEW YORK       LGT RAIN  34  33  96 CALM      29.98F                  
NEWARK         LGTSLEET  35  32  88 SE3       29.96F                  
CHICAGO        LGT SNOW  25  24  96 N10       29.91R FOG     WCI  15  
HARTFORD       CLOUDY    32  23  69 CALM      30.03F                  
BOSTON         CLOUDY    32  19  58 S7        30.04S WCI  26          
DALLAS         PTCLDY    46  29  51 N9        30.09S                  
PHILADELPHIA   LGT RAIN  35  32  88 CALM      29.97                   
LOS ANGELES    PTCLDY    53  38  56 W28G37    29.96R                  
WASHINGTON DC  LGT RAIN  34  32  92 S13       29.88F WCI  25